Home   Weather   Calgary   Past weeks
Flag for Canada

Past Weather in Calgary, Alberta, Canada — Yesterday and Last 2 Weeks

Now
52 °F

Scattered clouds.


Feels Like: 52 °F
Forecast: 63 / 38 °F
Wind: 2 mph from North

Location: Calgary International

Current Time: May 22, 2019 at 11:45:40 am

Latest Report: May 22, 2019 at 11:00 am


Visibility: 20 mi

Pressure: 30.20 "Hg (26.57 "Hg at 1063m altitude)

Humidity: 62%

Dew Point: 39 °F

Location of CalgaryLocation

Past Weather in Calgary — Graph

°F

Calgary Temperature Yesterday

Maximum temperature yesterday: 45 °F (at 2:00 pm)
Minimum temperature yesterday: 39 °F (at 4:00 am)
Average temperature yesterday: 42 °F

High & Low Weather Summary for the Past Weeks

 TemperatureHumidityPressure
High73 °F (May 11, 5:00 pm)100% (May 22, 5:05 am)30.37 "Hg (May 22, 5:05 am)
Low30 °F (May 20, 4:00 am)23% (May 11, 6:00 pm)29.66 "Hg (May 12, 6:00 pm)
Average48 °F67%30.03 "Hg
* Reported May 7 10:00 am — May 22 10:00 am, Calgary. Weather by CustomWeather, © 2019

Note: Actual official high and low records may vary slightly from our data, if they occured in-between our weather recording intervals... More about our weather records

Advertising

Calgary Weather History for the Previous 24 Hours

Scroll right to see more
 ConditionsComfort  
Time TempWeatherWind HumidityBarometerVisibility
10:00 am
Wed, May 22
48 °FScattered clouds.2 mph76%30.20 "Hg15 mi
9:00 am45 °FBroken clouds.2 mph93%30.22 "Hg12 mi
8:00 am43 °FBroken clouds.3 mph93%30.21 "Hg12 mi
7:49 am43 °FPartly sunny.2 mph93%30.21 "Hg15 mi
7:00 am39 °FPartly sunny.5 mph100%30.20 "Hg7 mi
6:00 am39 °FChilly.3 mph93%30.19 "Hg5 mi
5:22 am41 °FFog.3 mph93%30.18 "Hg3 mi
5:05 am39 °FChilly.2 mph100%30.17 "Hg1 mi
4:00 am41 °FOvercast.5 mph93%30.16 "Hg10 mi
3:10 am43 °FLight rain. Mostly cloudy.5 mph93%30.15 "Hg7 mi
3:00 am43 °FLight rain. Mostly cloudy.6 mph93%30.15 "Hg5 mi
2:11 am43 °FRain. Overcast.2 mph93%30.16 "Hg4 mi
1:00 am43 °FLight rain. Mostly cloudy.5 mph93%30.15 "Hg4 mi
12:00 am43 °FLight rain. Overcast.6 mph93%30.14 "Hg5 mi
11:00 pm
Tue, May 21
43 °FLight rain. Overcast.6 mph93%30.14 "Hg7 mi
10:00 pm43 °FLight rain. Fog.8 mph93%30.13 "Hg5 mi
9:00 pm45 °FLight rain. Fog.9 mph87%30.10 "Hg5 mi
8:45 pm45 °FLight rain. Fog.7 mph87%30.10 "Hg5 mi
8:00 pm45 °FLight rain. Overcast.7 mph87%30.09 "Hg10 mi
7:00 pm45 °FLight rain. Overcast.5 mph81%30.08 "Hg10 mi
6:00 pm45 °FLight rain. Cloudy.5 mph81%30.08 "Hg15 mi
5:00 pm45 °FLight rain. Overcast.5 mph81%30.07 "Hg10 mi
4:53 pm45 °FLight rain. Overcast.5 mph81%30.07 "Hg10 mi
4:00 pm45 °FOvercast.5 mph81%30.06 "Hg15 mi
3:00 pm45 °FOvercast.6 mph81%30.06 "Hg15 mi
2:00 pm45 °FOvercast.6 mph87%30.04 "Hg15 mi
1:00 pm43 °FMore clouds than sun.9 mph87%30.03 "Hg10 mi
12:53 pm43 °FMore clouds than sun.9 mph87%30.02 "Hg9 mi
12:00 pm41 °FLight rain. Fog.No wind87%30.01 "Hg5 mi
11:41 am41 °FLight rain. Fog.5 mph87%30.00 "Hg5 mi
11:00 am43 °FMore clouds than sun.5 mph81%29.99 "Hg15 mi
Weather by CustomWeather, © 2019

See weather overview